| time (UTC) | temp F | wind direction | speed knots | gust knots | rain 1hr in | rain 24hr in | rain mn in | humidity % | barometer mb |
| 20260504050559 | 48 | 102 | 0.0 | 3.5 | 0.00 | 0.00 | 0.00 | 59 | 1014.7 |
| 20260504045553 | 48 | 289 | 0.0 | 2.6 | 0.00 | 0.00 | 0.00 | 53 | 1014.5 |
| 20260504045048 | 48 | 138 | 1.7 | 2.6 | 0.00 | 0.00 | 0.00 | 54 | 1014.8 |
| 20260504044546 | 48 | 260 | 0.9 | 3.5 | 0.00 | 0.00 | 0.00 | 53 | 1014.7 |
| 20260504044043 | 48 | 82 | 1.7 | 2.6 | 0.00 | 0.00 | 0.00 | 57 | 1014.7 |
| 20260504043540 | 48 | 108 | 0.9 | 3.5 | 0.00 | 0.00 | 0.00 | 52 | 1014.8 |
| 20260504043037 | 47 | 267 | 0.0 | 2.6 | 0.00 | 0.00 | 0.00 | 58 | 1014.7 |
| 20260504042534 | 47 | 284 | 1.7 | 2.6 | 0.00 | 0.00 | 0.00 | 55 | 1014.5 |
| 20260504042031 | 48 | 111 | 1.7 | 1.7 | 0.00 | 0.00 | 0.00 | 57 | 1014.7 |
| 20260504041527 | 48 | 254 | 1.7 | 3.5 | 0.00 | 0.00 | 0.00 | 54 | 1014.8 |
| 20260504041023 | 48 | 48 | 1.7 | 2.6 | 0.00 | 0.00 | 0.00 | 57 | 1014.7 |
| 20260504040521 | 49 | 283 | 2.6 | 3.5 | 0.00 | 0.00 | 0.00 | 51 | 1014.7 |
| 20260504040018 | 49 | 281 | 0.9 | 2.6 | 0.00 | 0.00 | 0.00 | 53 | 1014.6 |
| 20260504035515 | 49 | 266 | 2.6 | 2.6 | 0.00 | 0.00 | 0.00 | 52 | 1014.5 |
| 20260504035011 | 49 | 253 | 1.7 | 2.6 | 0.00 | 0.00 | 0.00 | 50 | 1014.6 |
| 20260504034509 | 50 | 289 | 1.7 | 7.0 | 0.00 | 0.00 | 0.00 | 51 | 1014.6 |
| 20260504034005 | 49 | 226 | 1.7 | 2.6 | 0.00 | 0.00 | 0.00 | 50 | 1014.6 |
| 20260504033503 | 49 | 266 | 0.9 | 1.7 | 0.00 | 0.00 | 0.00 | 50 | 1014.6 |
| 20260504033000 | 49 | 256 | 3.5 | 4.3 | 0.00 | 0.00 | 0.00 | 50 | 1014.8 |
| 20260504032457 | 48 | 269 | 0.9 | 2.6 | 0.00 | 0.00 | 0.00 | 53 | 1014.6 |
| 20260504031954 | 48 | 215 | 1.7 | 1.7 | 0.00 | 0.00 | 0.00 | 57 | 1014.6 |
| 20260504031450 | 49 | 209 | 0.9 | 2.6 | 0.00 | 0.00 | 0.00 | 52 | 1014.5 |
| 20260504030947 | 49 | 230 | 0.9 | 2.6 | 0.00 | 0.00 | 0.00 | 50 | 1014.6 |
| 20260504030444 | 50 | 281 | 3.5 | 3.5 | 0.00 | 0.00 | 0.00 | 50 | 1014.4 |
| 20260504025940 | 50 | 294 | 0.9 | 3.5 | 0.00 | 0.00 | 0.00 | 52 | 1014.4 |
| 20260504025437 | 50 | 158 | 3.5 | 3.5 | 0.00 | 0.00 | 0.00 | 50 | 1014.5 |
| 20260504024934 | 50 | 205 | 0.0 | 2.6 | 0.00 | 0.00 | 0.00 | 51 | 1014.5 |
| 20260504024431 | 50 | 204 | 0.9 | 2.6 | 0.00 | 0.00 | 0.00 | 49 | 1014.7 |
| 20260504023928 | 50 | 236 | 3.5 | 3.5 | 0.00 | 0.00 | 0.00 | 49 | 1014.7 |
| 20260504023425 | 50 | 33 | 1.7 | 3.5 | 0.00 | 0.00 | 0.00 | 51 | 1014.6 |
| 20260504022920 | 50 | 320 | 1.7 | 3.5 | 0.00 | 0.00 | 0.00 | 49 | 1014.6 |
| 20260504022417 | 51 | 304 | 1.7 | 4.3 | 0.00 | 0.00 | 0.00 | 50 | 1014.7 |
| 20260504021914 | 50 | 257 | 0.0 | 1.7 | 0.00 | 0.00 | 0.00 | 48 | 1014.6 |
| 20260504021411 | 51 | 264 | 0.9 | 2.6 | 0.00 | 0.00 | 0.00 | 48 | 1014.6 |
| 20260504020908 | 51 | 334 | 0.9 | 2.6 | 0.00 | 0.00 | 0.00 | 46 | 1014.5 |
| 20260504020404 | 51 | 243 | 0.9 | 2.6 | 0.00 | 0.00 | 0.00 | 47 | 1014.6 |
| 20260504015901 | 51 | 313 | 1.7 | 3.5 | 0.00 | 0.00 | 0.00 | 46 | 1014.7 |
| 20260504015357 | 51 | 168 | 1.7 | 3.5 | 0.00 | 0.00 | 0.00 | 47 | 1014.4 |
| 20260504014853 | 51 | 267 | 0.0 | 1.7 | 0.00 | 0.00 | 0.00 | 48 | 1014.6 |
| 20260504014349 | 50 | 238 | 0.9 | 2.6 | 0.00 | 0.00 | 0.00 | 47 | 1014.5 |
| 20260504013847 | 51 | 243 | 1.7 | 2.6 | 0.00 | 0.00 | 0.00 | 47 | 1014.5 |
| 20260504013345 | 50 | 232 | 0.0 | 2.6 | 0.00 | 0.00 | 0.00 | 47 | 1014.5 |
| 20260504012841 | 50 | 235 | 0.0 | 1.7 | 0.00 | 0.00 | 0.00 | 47 | 1014.5 |
| 20260504012339 | 50 | 219 | 0.0 | 1.7 | 0.00 | 0.00 | 0.00 | 48 | 1014.5 |
| 20260504011836 | 50 | 193 | 0.9 | 1.7 | 0.00 | 0.00 | 0.00 | 48 | 1014.6 |
| 20260504011332 | 50 | 231 | 0.9 | 0.9 | 0.00 | 0.00 | 0.00 | 49 | 1014.4 |
| 20260504010829 | 50 | 246 | 0.9 | 1.7 | 0.00 | 0.00 | 0.00 | 49 | 1014.4 |
| 20260504010324 | 50 | 256 | 0.0 | 0.9 | 0.00 | 0.00 | 0.00 | 50 | 1014.5 |
| 20260504005821 | 51 | 222 | 0.0 | 1.7 | 0.00 | 0.00 | 0.00 | 48 | 1014.4 |
| 20260504005318 | 51 | 229 | 0.0 | 1.7 | 0.00 | 0.00 | 0.00 | 45 | 1014.3 |
| 20260504004816 | 52 | 245 | 1.7 | 1.7 | 0.00 | 0.00 | 0.00 | 45 | 1014.5 |
| 20260504004313 | 52 | 218 | 0.9 | 1.7 | 0.00 | 0.00 | 0.00 | 45 | 1014.2 |
| 20260504003809 | 52 | 230 | 1.7 | 1.7 | 0.00 | 0.00 | 0.00 | 45 | 1014.2 |
| 20260504003307 | 52 | 249 | 0.9 | 1.7 | 0.00 | 0.00 | 0.00 | 44 | 1014.2 |
| 20260504002803 | 52 | 265 | 0.9 | 1.7 | 0.00 | 0.00 | 0.00 | 45 | 1014.1 |
| 20260504002300 | 53 | 251 | 1.7 | 4.3 | 0.00 | 0.00 | 0.00 | 45 | 1014.1 |
| 20260504001758 | 53 | 227 | 0.0 | 1.7 | 0.00 | 0.00 | 0.00 | 44 | 1014.2 |
| 20260504001254 | 53 | 268 | 1.7 | 1.7 | 0.00 | 0.00 | 0.00 | 44 | 1014.0 |
| 20260504000751 | 53 | 252 | 0.9 | 3.5 | 0.00 | 0.00 | 0.00 | 43 | 1014.1 |
| 20260504000248 | 53 | 222 | 0.9 | 1.7 | 0.00 | 0.00 | 0.00 | 43 | 1014.0 |
| 20260503235746 | 54 | 222 | 0.0 | 2.6 | 0.00 | 0.00 | 0.00 | 43 | 1014.3 |
| 20260503235243 | 54 | 52 | 0.0 | 1.7 | 0.00 | 0.00 | 0.00 | 43 | 1014.0 |
| 20260503234741 | 54 | 243 | 0.0 | 2.6 | 0.00 | 0.00 | 0.00 | 43 | 1014.1 |
| 20260503234239 | 55 | 215 | 1.7 | 3.5 | 0.00 | 0.00 | 0.00 | 42 | 1014.2 |
| 20260503233735 | 54 | 219 | 1.7 | 1.7 | 0.00 | 0.00 | 0.00 | 44 | 1014.1 |
| 20260503233231 | 55 | 229 | 1.7 | 2.6 | 0.00 | 0.00 | 0.00 | 40 | 1014.0 |
| 20260503232728 | 55 | 221 | 2.6 | 4.3 | 0.00 | 0.00 | 0.00 | 41 | 1013.8 |
| 20260503232226 | 55 | 261 | 2.6 | 2.6 | 0.00 | 0.00 | 0.00 | 42 | 1013.8 |
| 20260503231724 | 56 | 192 | 1.7 | 2.6 | 0.00 | 0.00 | 0.00 | 42 | 1013.8 |
| 20260503231220 | 56 | 220 | 0.9 | 3.5 | 0.00 | 0.00 | 0.00 | 41 | 1013.9 |
| 20260503230716 | 56 | 252 | 1.7 | 5.2 | 0.00 | 0.00 | 0.00 | 40 | 1014.0 |
| 20260503230214 | 56 | 231 | 0.0 | 2.6 | 0.00 | 0.00 | 0.00 | 40 | 1013.9 |
| 20260503225711 | 56 | 141 | 0.9 | 1.7 | 0.00 | 0.00 | 0.00 | 40 | 1013.9 |
| 20260503225211 | 55 | 232 | 0.9 | 2.6 | 0.00 | 0.00 | 0.00 | 39 | 1014.0 |
| 20260503224709 | 56 | 230 | 0.0 | 4.3 | 0.00 | 0.00 | 0.00 | 44 | 1013.8 |
| 20260503224207 | 56 | 254 | 1.7 | 6.1 | 0.00 | 0.00 | 0.00 | 39 | 1013.8 |
| 20260503223704 | 56 | 104 | 3.5 | 5.2 | 0.00 | 0.00 | 0.00 | 39 | 1013.8 |
| 20260503223201 | 56 | 243 | 2.6 | 4.3 | 0.00 | 0.00 | 0.00 | 40 | 1013.8 |
| 20260503222658 | 57 | 248 | 1.7 | 4.3 | 0.00 | 0.00 | 0.00 | 38 | 1013.9 |
| 20260503222155 | 57 | 263 | 1.7 | 5.2 | 0.00 | 0.00 | 0.00 | 39 | 1013.9 |
| 20260503221654 | 57 | 238 | 0.9 | 5.2 | 0.00 | 0.00 | 0.00 | 41 | 1013.8 |
| 20260503221150 | 57 | 214 | 0.0 | 3.5 | 0.00 | 0.00 | 0.00 | 39 | 1013.9 |
| 20260503220647 | 57 | 225 | 3.5 | 3.5 | 0.00 | 0.00 | 0.00 | 39 | 1013.9 |
| 20260503220143 | 57 | 285 | 0.9 | 1.7 | 0.00 | 0.00 | 0.00 | 39 | 1014.0 |
| 20260503215641 | 57 | 130 | 2.6 | 3.5 | 0.00 | 0.00 | 0.00 | 38 | 1013.8 |
| 20260503215137 | 57 | 282 | 0.0 | 4.3 | 0.00 | 0.00 | 0.00 | 38 | 1013.9 |
| 20260503214637 | 56 | 180 | 2.6 | 8.7 | 0.00 | 0.00 | 0.00 | 38 | 1013.7 |
| 20260503214132 | 56 | 238 | 2.6 | 3.5 | 0.00 | 0.00 | 0.00 | 36 | 1013.9 |
| 20260503213632 | 57 | 238 | 1.7 | 5.2 | 0.00 | 0.00 | 0.00 | 38 | 1013.9 |
| 20260503213128 | 57 | 262 | 2.6 | 3.5 | 0.00 | 0.00 | 0.00 | 39 | 1014.0 |
| 20260503212625 | 57 | 256 | 3.5 | 4.3 | 0.00 | 0.00 | 0.00 | 37 | 1013.7 |
| 20260503212122 | 57 | 116 | 0.0 | 4.3 | 0.00 | 0.00 | 0.00 | 37 | 1013.8 |
| 20260503211620 | 57 | 55 | 1.7 | 4.3 | 0.00 | 0.00 | 0.00 | 38 | 1013.9 |
| 20260503211115 | 57 | 266 | 1.7 | 5.2 | 0.00 | 0.00 | 0.00 | 37 | 1013.8 |
| 20260503210612 | 57 | 242 | 1.7 | 3.5 | 0.00 | 0.00 | 0.00 | 40 | 1013.8 |
| 20260503210109 | 57 | 232 | 0.0 | 3.5 | 0.00 | 0.00 | 0.00 | 42 | 1013.8 |
| 20260503205605 | 57 | 229 | 3.5 | 4.3 | 0.00 | 0.00 | 0.00 | 37 | 1013.8 |
| 20260503205101 | 58 | 228 | 2.6 | 5.2 | 0.00 | 0.00 | 0.00 | 37 | 1013.7 |
| 20260503204558 | 61 | 239 | 3.5 | 5.2 | 0.00 | 0.00 | 0.00 | 34 | 1013.8 |
| 20260503204055 | 59 | 75 | 0.9 | 2.6 | 0.00 | 0.00 | 0.00 | 36 | 1013.9 |
| 20260503203552 | 57 | 225 | 3.5 | 5.2 | 0.00 | 0.00 | 0.00 | 37 | 1014.1 |
| 20260503203049 | 57 | 229 | 1.7 | 3.5 | 0.00 | 0.00 | 0.00 | 38 | 1013.8 |
| 20260503202547 | 57 | 256 | 3.5 | 5.2 | 0.00 | 0.00 | 0.00 | 38 | 1013.7 |
| 20260503202045 | 59 | 235 | 1.7 | 7.0 | 0.00 | 0.00 | 0.00 | 33 | 1014.0 |
| 20260503201543 | 59 | 245 | 3.5 | 3.5 | 0.00 | 0.00 | 0.00 | 37 | 1014.1 |
| 20260503201040 | 59 | 230 | 1.7 | 7.0 | 0.00 | 0.00 | 0.00 | 36 | 1014.1 |
| 20260503200536 | 59 | 226 | 1.7 | 4.3 | 0.00 | 0.00 | 0.00 | 36 | 1013.9 |
| 20260503200033 | 57 | 170 | 0.0 | 2.6 | 0.00 | 0.00 | 0.00 | 37 | 1014.0 |
| 20260503195530 | 57 | 244 | 7.0 | 7.8 | 0.00 | 0.00 | 0.00 | 36 | 1014.2 |
| 20260503195027 | 58 | 146 | 0.9 | 3.5 | 0.00 | 0.00 | 0.00 | 36 | 1014.1 |
| 20260503194524 | 57 | 151 | 0.9 | 4.3 | 0.00 | 0.00 | 0.00 | 35 | 1014.3 |
| 20260503194024 | 58 | 121 | 2.6 | 4.3 | 0.00 | 0.00 | 0.00 | 38 | 1014.4 |
| 20260503193521 | 59 | 177 | 1.7 | 4.3 | 0.00 | 0.00 | 0.00 | 38 | 1014.3 |
| 20260503193016 | 59 | 111 | 3.5 | 4.3 | 0.00 | 0.00 | 0.00 | 36 | 1014.5 |
| 20260503192512 | 57 | 232 | 2.6 | 2.6 | 0.00 | 0.00 | 0.00 | 37 | 1014.3 |
| 20260503192008 | 57 | 228 | 1.7 | 4.3 | 0.00 | 0.00 | 0.00 | 37 | 1014.6 |
| 20260503191505 | 58 | 213 | 4.3 | 5.2 | 0.00 | 0.00 | 0.00 | 34 | 1014.7 |
| 20260503191002 | 57 | 266 | 1.7 | 5.2 | 0.00 | 0.00 | 0.00 | 35 | 1014.7 |
| 20260503190459 | 57 | 256 | 2.6 | 4.3 | 0.00 | 0.00 | 0.00 | 38 | 1014.8 |
| 20260503185956 | 57 | 126 | 1.7 | 2.6 | 0.00 | 0.00 | 0.00 | 37 | 1014.7 |
| 20260503185452 | 57 | 115 | 3.5 | 3.5 | 0.00 | 0.00 | 0.00 | 39 | 1015.0 |
| 20260503184952 | 56 | 238 | 1.7 | 3.5 | 0.00 | 0.00 | 0.00 | 37 | 1015.0 |
| 20260503184448 | 57 | 268 | 3.5 | 7.0 | 0.00 | 0.00 | 0.00 | 36 | 1015.1 |
| 20260503183944 | 57 | 260 | 2.6 | 4.3 | 0.00 | 0.00 | 0.00 | 39 | 1015.0 |
| 20260503183441 | 59 | 232 | 2.6 | 6.1 | 0.00 | 0.00 | 0.00 | 35 | 1015.2 |
| 20260503182938 | 57 | 224 | 0.9 | 6.1 | 0.00 | 0.00 | 0.00 | 36 | 1015.1 |
| 20260503182437 | 57 | 265 | 3.5 | 3.5 | 0.00 | 0.00 | 0.00 | 38 | 1015.1 |
| 20260503181934 | 57 | 286 | 0.0 | 3.5 | 0.00 | 0.00 | 0.00 | 38 | 1015.2 |
| 20260503181431 | 58 | 220 | 2.6 | 5.2 | 0.00 | 0.00 | 0.00 | 38 | 1015.3 |
| 20260503180927 | 58 | 289 | 1.7 | 5.2 | 0.00 | 0.00 | 0.00 | 36 | 1015.3 |
| 20260503180427 | 57 | 100 | 0.0 | 6.1 | 0.00 | 0.00 | 0.00 | 38 | 1015.2 |
| 20260503175922 | 56 | 257 | 0.0 | 4.3 | 0.00 | 0.00 | 0.00 | 42 | 1015.2 |
| 20260503175421 | 57 | 116 | 1.7 | 2.6 | 0.00 | 0.00 | 0.00 | 38 | 1015.3 |
| 20260503174916 | 56 | 230 | 0.9 | 5.2 | 0.00 | 0.00 | 0.00 | 37 | 1015.3 |
| 20260503174415 | 59 | 125 | 1.7 | 3.5 | 0.00 | 0.00 | 0.00 | 39 | 1015.4 |
| 20260503173914 | 57 | 265 | 4.3 | 5.2 | 0.00 | 0.00 | 0.00 | 36 | 1015.4 |
| 20260503173411 | 56 | 214 | 2.6 | 2.6 | 0.00 | 0.00 | 0.00 | 40 | 1015.5 |
| 20260503172908 | 56 | 156 | 1.7 | 3.5 | 0.00 | 0.00 | 0.00 | 36 | 1015.3 |
| 20260503172405 | 56 | 81 | 4.3 | 4.3 | 0.00 | 0.00 | 0.00 | 37 | 1015.5 |
| 20260503171901 | 56 | 258 | 1.7 | 5.2 | 0.00 | 0.00 | 0.00 | 38 | 1015.5 |
| 20260503171358 | 58 | 273 | 1.7 | 5.2 | 0.00 | 0.00 | 0.00 | 39 | 1015.5 |
| 20260503170855 | 58 | 246 | 3.5 | 5.2 | 0.00 | 0.00 | 0.00 | 37 | 1015.6 |
| 20260503170352 | 58 | 12 | 2.6 | 3.5 | 0.00 | 0.00 | 0.00 | 39 | 1015.4 |
| 20260503150744 | 49 | 264 | 2.6 | 3.5 | 0.00 | 0.00 | 0.00 | 44 | 1017.0 |
| 20260503150240 | 48 | 245 | 0.0 | 7.0 | 0.00 | 0.00 | 0.00 | 45 | 1016.8 |
| 20260503140204 | 49 | 205 | 1.7 | 2.6 | 0.00 | 0.00 | 0.00 | 45 | 1016.9 |
| 20260503131134 | 44 | 44 | 0.9 | 2.6 | 0.00 | 0.00 | 0.00 | 60 | 1017.3 |
| 20260503130632 | 43 | 136 | 1.7 | 2.6 | 0.00 | 0.00 | 0.00 | 61 | 1017.4 |
| 20260503130129 | 43 | 235 | 1.7 | 3.5 | 0.00 | 0.00 | 0.00 | 62 | 1017.5 |
| 20260503110516 | 36 | 220 | 0.0 | 4.3 | 0.00 | 0.00 | 0.00 | 76 | 1016.7 |
| 20260503090401 | 36 | 245 | 0.9 | 1.7 | 0.00 | 0.00 | 0.00 | 73 | 1015.8 |
| 20260503081328 | 35 | 276 | 1.7 | 1.7 | 0.00 | 0.00 | 0.00 | 73 | 1015.4 |
| 20260503080825 | 36 | 239 | 1.7 | 1.7 | 0.00 | 0.00 | 0.00 | 73 | 1015.5 |
| 20260503080322 | 36 | 220 | 0.9 | 2.6 | 0.00 | 0.00 | 0.00 | 73 | 1015.5 |
| 20260503072753 | 38 | 220 | 0.0 | 1.7 | 0.00 | 0.00 | 0.00 | 69 | 1015.4 |
| 20260503072250 | 38 | 324 | 0.9 | 1.7 | 0.00 | 0.00 | 0.00 | 68 | 1015.5 |
| 20260503071746 | 38 | 107 | 0.0 | 2.6 | 0.00 | 0.00 | 0.00 | 67 | 1015.4 |
| 20260503071243 | 38 | 173 | 0.0 | 2.6 | 0.00 | 0.00 | 0.00 | 68 | 1015.4 |
| 20260503070739 | 38 | 154 | 0.9 | 3.5 | 0.00 | 0.00 | 0.00 | 68 | 1015.3 |
| 20260503070237 | 38 | 98 | 1.7 | 1.7 | 0.00 | 0.00 | 0.00 | 68 | 1015.3 |
| 20260503060202 | 38 | 171 | 0.0 | 1.7 | 0.00 | 0.00 | 0.00 | 67 | 1015.4 |
| 20260503054649 | 39 | 185 | 0.9 | 1.7 | 0.00 | 0.00 | 0.00 | 64 | 1015.3 |
| 20260503054146 | 39 | 356 | 0.0 | 2.6 | 0.00 | 0.00 | 0.00 | 63 | 1015.3 |
| 20260503053644 | 39 | 118 | 2.6 | 2.6 | 0.00 | 0.00 | 0.00 | 64 | 1015.4 |